User: anonymous   Login
Location: Bottens
(46.6171°N, 6.6605°E)
Time: 02:15:58
(UTC+00:00)
Language:

Lacrosse 5 rocket - Orbit

View from above orbital plane
View from above orbital plane
View from above satellite
View from above satellite

Ground track
Ground track

The orbit data is extracted from the following two-line orbital elements,

1 28647U 05016B   21269.38692650  .00000493  00000-0  46410-4 0  9993
2 28647  56.9972 144.8828 0118334 264.2250  94.5287 15.06577512130168
Epoch (UTC): 26 September 2021 09:17:10
Eccentricity: 0.0118334
inclination: 56.9972°
perigee height: 465 km
apogee height: 628 km
right ascension of ascending node: 144.8828°
argument of perigee: 264.2250°
revolutions per day: 15.06577512
mean anomaly at epoch: 94.5287°
orbit number at epoch: 13016

The dashed part of the orbit path shows where the satellite is in the earth's shadow,  

DLR